Regional Weather Roundup
Issued by NWS

Home | Current Version | Previous Version | Graphics & Text | Print | Product List | Glossary On
Versions: 1 2 3 4 5 6 7 8 9 10 11 12 13 14 15 16 17 18 19 20 21 22 23 24 25 26 27 28
000
ASUS45 KSLC 290210
RWRUT

UTAH REGIONAL WEATHER ROUNDUP
NATIONAL WEATHER SERVICE SALT LAKE CITY UT
800 PM MDT THU APR 28 2016

UTZ001>011-023>025-290300-

NORTHERN UTAH

CITY           SKY/WX    TMP DP  RH WIND       PRES   REMARKS
BRIGHAM CITY   PTCLDY    53  28  38 E17G24    29.81R
HILL AFB       NOT AVBL
LOGAN          PTCLDY    51  30  44 E24G31    29.82R
OGDEN          PTCLDY    51  28  41 NE22G37   29.77S
PROVO AIRPORT  MOCLDY    52  39  62 SE13      29.77R
SALT LAKE CITY CLOUDY    52  32  46 E15       29.78R
VERNAL         CLOUDY    44  35  70 NE9       29.84R
WENDOVER       MOCLDY    54  39  58 E6        29.81R
HEBER CITY     CLOUDY    41  32  70 N12G23    29.82R

$$

UTZ012>022-026-027-290300-

SOUTHERN/CENTRAL UTAH

CITY           SKY/WX    TMP DP  RH WIND       PRES   REMARKS
BLANDING       MOCLDY    43  33  68 W13       29.87R
BRYCE CANYON   LGT SNOW  35  32  88 W8        29.80R FOG     WCI  29
CEDAR CITY     CLOUDY    42  38  85 SW8       29.77R
DELTA          CLOUDY    45  41  87 NE5       29.80R
MILFORD        CLOUDY    43  40  89 E7        29.79R
MOAB/CYNLANDS  MOCLDY    47  40  76 NE5       29.76S
PRICE          MOCLDY    46  37  71 CALM      29.79R
ST GEORGE      CLOUDY    57  41  54 N9        29.77R

$$

REGIONAL REPORTS     COLORADO/ARIZONA

CITY           SKY/WX    TMP DP  RH WIND       PRES   REMARKS
CRAIG, CO      CLOUDY    40  35  83 E3        29.88F
GRAND JUNCTION CLOUDY    49  39  68 SW10      29.82R THUNDER
RIFLE          CLOUDY    49  36  61 NW6       29.81R
MONTROSE       CLOUDY    48  39  71 NW12      29.82R
CORTEZ         CLOUDY    45  34  65 E8        29.80S
PAGE, AZ       MOCLDY    54  35  48 NW3       29.74R
GRAND CANYON   CLOUDY    39  36  89 SW6       29.83R WCI  35
KINGMAN        PTCLDY    53  45  74 SE9       29.78S
FLAGSTAFF      MIX PCPN  36  33  89 SW8       29.84R WCI  30

$$

REGIONAL REPORTS    NEVADA/IDAHO/WYOMING

CITY           SKY/WX    TMP DP  RH WIND       PRES   REMARKS
LAS VEGAS, NV  CLOUDY    58  54  86 E3        29.72R
ELY            CLOUDY    43  35  73 N13       29.85R
ELKO           CLOUDY    50  34  54 W16       29.86R
POCATELLO, ID  CLOUDY    56  30  37 NE10      29.81S
BURLEY         LGT RAIN  51  39  63 N16G24    29.81R
EVANSTON, WY   CLOUDY    33  27  78 NE10      29.89S WCI  25
ROCK SPRINGS   CLOUDY    32  27  81 NE21G28   29.94R WCI  20
KEMMERER         N/A     32  28  86 E14       29.93R WCI  22

$$




USA.gov is the U.S. government's official web portal to all federal, state and local government web resources and services.